Home   Weather   Charleston   Past weeks
Flag for USA

Past Weather in Charleston, West Virginia, USA — Yesterday and Last 2 Weeks

Now
81 °F

Scattered clouds.


Feels Like: 82 °F
Forecast: 88 / 64 °F
Wind: 6 mph from North

Location: Yeager Airport

Current Time: Jun 25, 2019 at 8:14:36 pm

Latest Report: Jun 25, 2019 at 6:54 pm


Visibility: 10 mi

Pressure: 30.00 "Hg

Humidity: 51%

Dew Point: 61 °F

Location of CharlestonLocation

Past Weather in Charleston — Graph

°F

Charleston Temperature Yesterday

Maximum temperature yesterday: 87 °F (at 1:54 pm)
Minimum temperature yesterday: 68 °F (at 5:54 am)
Average temperature yesterday: 76 °F

High & Low Weather Summary for the Past Weeks

 TemperatureHumidityPressure
High87 °F (Jun 24, 1:54 pm)100% (Jun 23, 2:54 am)30.22 "Hg (Jun 23, 2:54 am)
Low48 °F (Jun 14, 5:54 am)33% (Jun 14, 3:54 pm)29.61 "Hg (Jun 20, 3:54 am)
Average70 °F75%29.94 "Hg
* Reported Jun 10 6:54 pm — Jun 25 6:54 pm, Charleston. Weather by CustomWeather, © 2019

Note: Actual official high and low records may vary slightly from our data, if they occured in-between our weather recording intervals... More about our weather records

Advertising

Charleston Weather History for the Previous 24 Hours

Scroll right to see more
 ConditionsComfort  
Time TempWeatherWind HumidityBarometerVisibility
6:54 pm
Tue, Jun 25
81 °FScattered clouds.6 mph51%30.00 "Hg10 mi
5:54 pm81 °FScattered clouds.3 mph49%30.00 "Hg10 mi
4:54 pm82 °FScattered clouds.8 mph48%29.99 "Hg10 mi
3:54 pm82 °FSunny.8 mph48%30.00 "Hg10 mi
2:54 pm81 °FScattered clouds.8 mph49%30.00 "Hg10 mi
1:54 pm80 °FScattered clouds.13 mph51%30.01 "Hg10 mi
12:54 pm79 °FScattered clouds.10 mph54%30.01 "Hg10 mi
11:54 am77 °FPartly sunny.10 mph64%30.01 "Hg10 mi
11:42 am78 °FPartly sunny.6 mph62%30.03 "Hg10 mi
10:54 am76 °FPartly sunny.7 mph69%29.99 "Hg10 mi
9:54 am74 °FPartly sunny.6 mph76%29.98 "Hg10 mi
8:54 am71 °FMostly cloudy.5 mph84%29.97 "Hg10 mi
8:17 am71 °FMostly cloudy.5 mph87%29.99 "Hg10 mi
7:54 am71 °FPartly sunny.8 mph84%29.96 "Hg10 mi
6:54 am70 °FBroken clouds.8 mph87%29.93 "Hg10 mi
5:54 am68 °FPartly cloudy.5 mph93%29.90 "Hg10 mi
4:54 am69 °FPartly cloudy.6 mph90%29.88 "Hg10 mi
4:05 am68 °FPassing clouds.5 mph93%29.90 "Hg10 mi
3:54 am69 °FPassing clouds.No wind90%29.87 "Hg10 mi
2:54 am70 °FPassing clouds.8 mph90%29.88 "Hg10 mi
1:54 am70 °FPassing clouds.6 mph93%29.88 "Hg10 mi
12:54 am71 °FPassing clouds.7 mph90%29.87 "Hg10 mi
11:54 pm
Mon, Jun 24
71 °FPassing clouds.5 mph93%29.85 "Hg10 mi
10:54 pm72 °FPassing clouds.8 mph91%29.83 "Hg10 mi
9:54 pm72 °FPassing clouds.No wind91%29.80 "Hg10 mi
8:54 pm73 °FPartly cloudy.6 mph90%29.78 "Hg10 mi
Weather by CustomWeather, © 2019

See weather overview